Weather History for Brownwood, TX

Change the Weather History Date:

Wednesday, June 5, 2013

  Actual Average (KABI) Record (KABI)
Temperature  
Mean Temperature 82 °F 78 °F  
Max Temperature 93 °F 89 °F 106 °F (1948)
Min Temperature 71 °F 67 °F 51 °F (1928)
Degree Days  
Heating Degree Days 0 0  
Month to date heating degree days 0  
Since 1 June heating degree days 0  
Since 1 July heating degree days 2558  
Cooling Degree Days 17 13  
Month to date cooling degree days 62  
Year to date cooling degree days 459  
Since 1 June cooling degree days 62  
Growing Degree Days 32 (Base 50)    
Moisture  
Dew Point 62 °F    
Average Humidity 52    
Maximum Humidity 78    
Minimum Humidity 30    
Precipitation  
Precipitation 0.00 in 0.14 in 1.96 in (2003)
Month to date precipitation 0.71  
Year to date precipitation 9.65  
Sea Level Pressure  
Sea Level Pressure 29.84 in    
Wind  
Wind Speed 11 mph (SE)    
Max Wind Speed 17 mph    
Max Gust Speed 25 mph    
Visibility 10 miles    
Events      
T = Trace of Precipitation, MM = Missing Value Source: NWS Daily Summary

Daily Weather History Graph

Daily Weather History Graph

Search for Another Location

Airport:

Trip Planner

Search our weather history database for the weather conditions in past years. The results will help you decide how hot, cold, wet, or windy it might be!

Date:

Astronomy

Jun. 05, 2013 Rise Set
Actual Time 6:30 AM CDT 8:38 PM CDT
Civil Twilight 6:02 AM CDT 9:06 PM CDT
Nautical Twilight 5:28 AM CDT 9:40 PM CDT
Astronomical Twilight 4:51 AM CDT 10:17 PM CDT
Moon 4:26 AM CDT (6/5) 6:13 PM CDT (6/5)
Length of Visible Light 15h 04m
Length of Day
14h 08m
Waning Crescent, 8% of the Moon is Illuminated
Jun 5
Waning Crescent
Jun 8
New
Jun 16
First Quarter
Jun 23
Full
Jun 29
Last Quarter

Hourly Weather History & Observations

Time (CDT) Temp. Heat Index Dew Point Humidity Pressure Visibility Wind Dir Wind Speed Gust Speed Precip Events Conditions
12:15 AM 80.6 °F 81.5 °F 60.8 °F 51% 29.92 in 10.0 mi ENE 9.2 mph - N/A   Clear
12:35 AM 78.8 °F - 60.8 °F 54% 29.90 in 10.0 mi ESE 8.1 mph - N/A   Clear
12:55 AM 77.0 °F - 60.8 °F 57% 29.89 in 10.0 mi SSE 8.1 mph - N/A   Clear
1:15 AM 77.0 °F - 60.8 °F 57% 29.87 in 10.0 mi SE 8.1 mph - N/A   Clear
1:35 AM 77.0 °F - 60.8 °F 57% 29.86 in 10.0 mi South 10.4 mph - N/A   Clear
1:55 AM 77.0 °F - 59.0 °F 54% 29.84 in 10.0 mi SSE 15.0 mph 20.7 mph N/A   Clear
2:15 AM 77.0 °F - 60.8 °F 57% 29.83 in 10.0 mi South 15.0 mph 23.0 mph N/A   Clear
2:35 AM 75.2 °F - 62.6 °F 65% 29.82 in 10.0 mi South 13.8 mph 21.9 mph N/A   Clear
2:55 AM 75.2 °F - 62.6 °F 65% 29.82 in 10.0 mi South 13.8 mph 19.6 mph N/A   Clear
3:15 AM 75.2 °F - 62.6 °F 65% 29.82 in 10.0 mi South 11.5 mph - N/A   Clear
3:35 AM 75.2 °F - 62.6 °F 65% 29.82 in 10.0 mi South 15.0 mph 19.6 mph N/A   Clear
3:55 AM 75.2 °F - 64.4 °F 69% 29.82 in 10.0 mi South 12.7 mph 19.6 mph N/A   Clear
4:15 AM 73.4 °F - 64.4 °F 73% 29.82 in 10.0 mi South 11.5 mph - N/A   Clear
4:35 AM 73.4 °F - 64.4 °F 73% 29.82 in 10.0 mi South 11.5 mph 17.3 mph N/A   Clear
4:55 AM 73.4 °F - 64.4 °F 73% 29.83 in 10.0 mi South 11.5 mph - N/A   Clear
5:15 AM 71.6 °F - 64.4 °F 78% 29.83 in 10.0 mi South 10.4 mph - N/A   Clear
5:35 AM 71.6 °F - 64.4 °F 78% 29.84 in 10.0 mi South 8.1 mph - N/A   Clear
5:55 AM 71.6 °F - 64.4 °F 78% 29.85 in 10.0 mi South 8.1 mph - N/A   Clear
6:15 AM 71.6 °F - 64.4 °F 78% 29.85 in 10.0 mi South 8.1 mph - N/A   Clear
6:35 AM 71.6 °F - 64.4 °F 78% 29.86 in 10.0 mi SSE 6.9 mph - N/A   Clear
6:55 AM 71.6 °F - 64.4 °F 78% 29.85 in 10.0 mi South 9.2 mph - N/A   Clear
7:15 AM 71.6 °F - 64.4 °F 78% 29.85 in 10.0 mi South 8.1 mph - N/A   Clear
7:35 AM 73.4 °F - 64.4 °F 73% 29.85 in 10.0 mi SSE 10.4 mph - N/A   Clear
7:55 AM 73.4 °F - 64.4 °F 73% 29.85 in 10.0 mi South 12.7 mph - N/A   Clear
8:15 AM 75.2 °F - 64.4 °F 69% 29.85 in 10.0 mi South 16.1 mph 21.9 mph N/A   Clear
8:35 AM 77.0 °F - 64.4 °F 65% 29.86 in 10.0 mi South 16.1 mph 21.9 mph N/A   Clear
8:55 AM 77.0 °F - 64.4 °F 65% 29.86 in 10.0 mi South 15.0 mph - N/A   Clear
9:15 AM 77.0 °F - 64.4 °F 65% 29.86 in 10.0 mi South 12.7 mph 20.7 mph N/A   Clear
9:35 AM 78.8 °F - 64.4 °F 61% 29.86 in 10.0 mi South 11.5 mph 18.4 mph N/A   Clear
9:55 AM 80.6 °F 82.3 °F 64.4 °F 58% 29.87 in 10.0 mi South 11.5 mph - N/A   Clear
10:15 AM 82.4 °F 83.9 °F 64.4 °F 54% 29.87 in 10.0 mi South 13.8 mph 17.3 mph N/A   Clear
10:35 AM 82.4 °F 83.9 °F 64.4 °F 54% 29.88 in 10.0 mi South 8.1 mph - N/A   Clear
10:55 AM 84.2 °F 85.6 °F 64.4 °F 51% 29.88 in 10.0 mi SE 11.5 mph - N/A   Clear
11:15 AM 82.4 °F 83.9 °F 64.4 °F 54% 29.92 in 10.0 mi NE 5.8 mph - N/A   Clear
11:35 AM 82.4 °F 83.9 °F 64.4 °F 54% 29.93 in 10.0 mi NNW 4.6 mph - N/A   Clear
11:55 AM 82.4 °F 83.9 °F 64.4 °F 54% 29.92 in 10.0 mi NE 5.8 mph - N/A   Clear
12:15 PM 84.2 °F 85.6 °F 64.4 °F 51% 29.90 in 10.0 mi ENE 9.2 mph - N/A   Clear
12:35 PM 84.2 °F 85.6 °F 64.4 °F 51% 29.91 in 10.0 mi East 8.1 mph - N/A   Clear
12:55 PM 84.2 °F 85.6 °F 64.4 °F 51% 29.91 in 10.0 mi ENE 9.2 mph - N/A   Clear
1:15 PM 86.0 °F 87.3 °F 64.4 °F 48% 29.90 in 10.0 mi East 11.5 mph 17.3 mph N/A   Clear
1:35 PM 89.6 °F 90.1 °F 62.6 °F 40% 29.88 in 10.0 mi SE 13.8 mph 20.7 mph N/A   Clear
1:55 PM 89.6 °F 91.1 °F 64.4 °F 43% 29.87 in 10.0 mi ESE 10.4 mph 20.7 mph N/A   Clear
2:15 PM 89.6 °F 91.1 °F 64.4 °F 43% 29.86 in 10.0 mi ESE 10.4 mph 24.2 mph N/A   Clear
2:35 PM 89.6 °F 90.1 °F 62.6 °F 40% 29.84 in 10.0 mi ESE 11.5 mph 19.6 mph N/A   Clear
2:55 PM 91.4 °F 93.2 °F 64.4 °F 41% 29.83 in 10.0 mi East 10.4 mph 24.2 mph N/A   Clear
3:15 PM 91.4 °F 92.1 °F 62.6 °F 38% 29.83 in 10.0 mi SSE 13.8 mph 23.0 mph N/A   Clear
3:35 PM 93.2 °F 94.1 °F 62.6 °F 36% 29.82 in 10.0 mi SE 17.3 mph 21.9 mph N/A   Clear
3:55 PM 93.2 °F 93.3 °F 60.8 °F 34% 29.81 in 10.0 mi SE 12.7 mph 25.3 mph N/A   Clear
4:15 PM 93.2 °F 93.3 °F 60.8 °F 34% 29.81 in 10.0 mi SE 12.7 mph 20.7 mph N/A   Clear
4:35 PM 93.2 °F 92.6 °F 59.0 °F 32% 29.81 in 10.0 mi ESE 13.8 mph 21.9 mph N/A   Clear
4:55 PM 93.2 °F 93.3 °F 60.8 °F 34% 29.80 in 10.0 mi ESE 13.8 mph 18.4 mph N/A   Clear
5:15 PM 93.2 °F 93.3 °F 60.8 °F 34% 29.79 in 10.0 mi ESE 17.3 mph 25.3 mph N/A   Clear
5:35 PM 93.2 °F 93.3 °F 60.8 °F 34% 29.79 in 10.0 mi SE 10.4 mph 24.2 mph N/A   Clear
5:55 PM 93.2 °F 92.6 °F 59.0 °F 32% 29.78 in 10.0 mi SE 13.8 mph 21.9 mph N/A   Clear
6:15 PM 93.2 °F 92.6 °F 59.0 °F 32% 29.77 in 10.0 mi ESE 13.8 mph 18.4 mph N/A   Clear
6:35 PM 93.2 °F 92.6 °F 59.0 °F 32% 29.76 in 10.0 mi SE 16.1 mph 21.9 mph N/A   Clear
6:55 PM 93.2 °F 91.9 °F 57.2 °F 30% 29.76 in 10.0 mi SE 16.1 mph 24.2 mph N/A   Clear
7:15 PM 91.4 °F 90.7 °F 59.0 °F 34% 29.76 in 10.0 mi SE 15.0 mph 18.4 mph N/A   Clear
7:35 PM 91.4 °F 89.9 °F 57.2 °F 31% 29.77 in 10.0 mi SE 13.8 mph 18.4 mph N/A   Clear
7:55 PM 91.4 °F 90.7 °F 59.0 °F 34% 29.78 in 10.0 mi SSE 13.8 mph 19.6 mph N/A   Clear
8:15 PM 89.6 °F 88.9 °F 59.0 °F 36% 29.78 in 10.0 mi SSE 10.4 mph 19.6 mph N/A   Clear
8:35 PM 86.0 °F 84.9 °F 57.2 °F 37% 29.79 in 10.0 mi SSE 10.4 mph - N/A   Clear
8:55 PM 86.0 °F 84.9 °F 57.2 °F 37% 29.79 in 10.0 mi SSE 11.5 mph 16.1 mph N/A   Clear
9:15 PM 86.0 °F 85.4 °F 59.0 °F 40% 29.79 in 10.0 mi SE 9.2 mph 16.1 mph N/A   Clear
9:35 PM 84.2 °F 83.8 °F 59.0 °F 42% 29.81 in 10.0 mi SSE 10.4 mph 16.1 mph N/A   Clear
9:55 PM 84.2 °F 83.8 °F 59.0 °F 42% 29.82 in 10.0 mi SE 10.4 mph 18.4 mph N/A   Clear
10:15 PM 84.2 °F 84.4 °F 60.8 °F 45% 29.82 in 10.0 mi SE 8.1 mph - N/A   Clear
10:35 PM 84.2 °F 84.4 °F 60.8 °F 45% 29.84 in 10.0 mi SE 11.5 mph 17.3 mph N/A   Clear
10:55 PM 84.2 °F 84.4 °F 60.8 °F 45% 29.83 in 10.0 mi SE 11.5 mph 16.1 mph N/A   Clear
11:15 PM 84.2 °F 84.4 °F 60.8 °F 45% 29.84 in 10.0 mi SSE 12.7 mph 17.3 mph N/A   Clear
11:35 PM 82.4 °F 82.9 °F 60.8 °F 48% 29.84 in 10.0 mi SSE 9.2 mph - N/A   Clear
11:55 PM 82.4 °F 82.9 °F 60.8 °F 48% 29.88 in 10.0 mi South 6.9 mph - N/A   Clear